Time,TemperatureF,DewpointF,PressureIn,WindDirection,WindDirectionDegrees,WindSpeedMPH,WindSpeedGustMPH,Humidity,HourlyPrecipIn,Conditions,Clouds,dailyrainin,SoftwareType,DateUTC
2013-05-22 00:01:00,49.5,38.6,0.00,WNW,292,0.0,3.1,66,0.00,,,0.00,VWS V13.01,2013-05-22 05:01:00,
2013-05-22 00:06:00,49.3,38.4,0.00,NNE,15,4.9,5.4,66,0.00,,,0.00,VWS V13.01,2013-05-22 05:06:00,
2013-05-22 00:11:00,49.3,38.4,0.00,NNW,345,3.6,8.3,66,0.00,,,0.00,VWS V13.01,2013-05-22 05:11:00,
2013-05-22 00:16:00,49.1,38.2,0.00,North,10,0.0,0.0,66,0.00,,,0.00,VWS V13.01,2013-05-22 05:16:00,
2013-05-22 00:21:00,49.1,38.2,0.00,North,0,3.6,3.6,66,0.00,,,0.00,VWS V13.01,2013-05-22 05:21:00,
2013-05-22 00:26:00,48.9,38.5,0.00,NNE,22,0.0,0.0,67,0.00,,,0.00,VWS V13.01,2013-05-22 05:26:00,
2013-05-22 00:31:00,49.1,38.6,0.00,North,0,0.0,2.2,67,0.00,,,0.00,VWS V13.01,2013-05-22 05:31:00,
2013-05-22 00:36:00,49.1,38.6,0.00,North,3,3.6,3.6,67,0.00,,,0.00,VWS V13.01,2013-05-22 05:36:00,
2013-05-22 00:41:00,48.9,38.5,0.00,ESE,119,0.0,0.0,67,0.00,,,0.00,VWS V13.01,2013-05-22 05:41:00,
2013-05-22 00:46:00,48.9,38.5,0.00,NNE,18,0.0,3.6,67,0.00,,,0.00,VWS V13.01,2013-05-22 05:46:00,
2013-05-22 00:51:00,48.9,38.5,0.00,North,357,2.2,2.2,67,0.00,,,0.00,VWS V13.01,2013-05-22 05:51:00,
2013-05-22 00:56:00,48.9,38.5,0.00,NNW,343,2.2,2.7,67,0.00,,,0.00,VWS V13.01,2013-05-22 05:56:00,
2013-05-22 01:01:00,48.7,38.3,0.00,NNW,337,2.2,2.2,67,0.00,,,0.00,VWS V13.01,2013-05-22 06:01:00,
2013-05-22 01:06:00,48.6,38.1,0.00,NNW,337,0.0,0.0,67,0.00,,,0.00,VWS V13.01,2013-05-22 06:06:00,
2013-05-22 01:11:00,48.4,37.9,0.00,NNW,334,0.0,2.2,67,0.00,,,0.00,VWS V13.01,2013-05-22 06:11:00,
2013-05-22 01:16:00,48.4,37.9,0.00,NE,40,0.0,0.0,67,0.00,,,0.00,VWS V13.01,2013-05-22 06:16:00,
2013-05-22 01:21:00,48.2,37.8,0.00,North,357,3.1,4.0,67,0.00,,,0.00,VWS V13.01,2013-05-22 06:21:00,
2013-05-22 01:26:00,48.2,38.2,0.00,NNW,345,0.0,0.0,68,0.00,,,0.00,VWS V13.01,2013-05-22 06:26:00,
2013-05-22 01:31:00,48.0,38.0,0.00,North,353,2.7,2.7,68,0.00,,,0.00,VWS V13.01,2013-05-22 06:31:00,
2013-05-22 01:36:00,48.0,38.0,0.00,North,10,0.0,2.2,68,0.00,,,0.00,VWS V13.01,2013-05-22 06:36:00,
2013-05-22 01:41:00,47.8,37.8,0.00,NE,50,0.0,0.0,68,0.00,,,0.00,VWS V13.01,2013-05-22 06:41:00,
2013-05-22 01:46:00,47.8,37.8,0.00,NW,316,0.0,0.0,68,0.00,,,0.00,VWS V13.01,2013-05-22 06:46:00,
2013-05-22 01:51:00,47.7,37.6,0.00,NNW,330,2.7,2.7,68,0.00,,,0.00,VWS V13.01,2013-05-22 06:51:00,
2013-05-22 01:56:00,47.7,37.6,0.00,North,353,2.7,2.7,68,0.00,,,0.00,VWS V13.01,2013-05-22 06:56:00,
2013-05-22 02:01:00,47.5,37.5,0.00,NNW,340,4.5,4.5,68,0.00,,,0.00,VWS V13.01,2013-05-22 07:01:00,
2013-05-22 02:06:00,47.3,37.3,0.00,NNE,17,2.2,2.7,68,0.00,,,0.00,VWS V13.01,2013-05-22 07:06:00,
2013-05-22 02:11:00,47.1,37.1,0.00,NE,55,2.7,4.0,68,0.00,,,0.00,VWS V13.01,2013-05-22 07:11:00,
2013-05-22 02:16:00,47.1,37.1,0.00,North,357,2.7,2.7,68,0.00,,,0.00,VWS V13.01,2013-05-22 07:16:00,
2013-05-22 02:21:00,46.9,36.9,0.00,NNW,329,4.5,4.5,68,0.00,,,0.00,VWS V13.01,2013-05-22 07:21:00,
2013-05-22 02:26:00,46.9,36.9,0.00,North,353,2.2,4.9,68,0.00,,,0.00,VWS V13.01,2013-05-22 07:26:00,
2013-05-22 02:31:00,46.9,36.9,0.00,NNE,18,0.0,0.0,68,0.00,,,0.00,VWS V13.01,2013-05-22 07:31:00,
2013-05-22 02:36:00,46.8,36.8,0.00,North,9,7.6,7.6,68,0.00,,,0.00,VWS V13.01,2013-05-22 07:36:00,
2013-05-22 02:41:00,46.6,36.6,0.00,NW,317,3.6,3.6,68,0.00,,,0.00,VWS V13.01,2013-05-22 07:41:00,
2013-05-22 02:46:00,46.6,36.6,0.00,North,357,2.7,3.1,68,0.00,,,0.00,VWS V13.01,2013-05-22 07:46:00,
2013-05-22 02:51:00,46.4,36.4,0.00,NW,319,0.0,2.2,68,0.00,,,0.00,VWS V13.01,2013-05-22 07:51:00,
2013-05-22 02:56:00,46.4,36.4,0.00,North,0,0.0,0.0,68,0.00,,,0.00,VWS V13.01,2013-05-22 07:56:00,
2013-05-22 03:01:00,46.4,36.4,0.00,NNW,345,0.0,0.0,68,0.00,,,0.00,VWS V13.01,2013-05-22 08:01:00,
2013-05-22 03:07:00,46.4,36.4,0.00,North,4,0.0,0.0,68,0.00,,,0.00,VWS V13.01,2013-05-22 08:07:00,
2013-05-22 03:12:00,46.4,36.4,0.00,North,0,0.0,0.0,68,0.00,,,0.00,VWS V13.01,2013-05-22 08:12:00,
2013-05-22 03:17:00,46.4,36.4,0.00,NW,307,2.7,3.6,68,0.00,,,0.00,VWS V13.01,2013-05-22 08:17:00,
2013-05-22 03:22:00,46.4,36.4,0.00,North,3,0.0,0.0,68,0.00,,,0.00,VWS V13.01,2013-05-22 08:22:00,
2013-05-22 03:27:00,46.6,36.6,0.00,NE,46,2.2,3.1,68,0.00,,,0.00,VWS V13.01,2013-05-22 08:27:00,
2013-05-22 03:32:00,46.4,36.4,0.00,North,357,0.0,0.0,68,0.00,,,0.00,VWS V13.01,2013-05-22 08:32:00,
2013-05-22 03:37:00,46.4,36.4,0.00,North,10,2.7,3.1,68,0.00,,,0.00,VWS V13.01,2013-05-22 08:37:00,
2013-05-22 03:42:00,46.4,36.4,0.00,NNE,18,0.0,2.7,68,0.00,,,0.00,VWS V13.01,2013-05-22 08:42:00,
2013-05-22 03:47:00,46.4,36.4,0.00,ENE,59,0.0,3.1,68,0.00,,,0.00,VWS V13.01,2013-05-22 08:47:00,
2013-05-22 03:52:00,46.4,36.4,0.00,North,11,0.0,0.0,68,0.00,,,0.00,VWS V13.01,2013-05-22 08:52:00,
2013-05-22 03:57:00,46.4,36.4,0.00,NE,50,0.0,0.0,68,0.00,,,0.00,VWS V13.01,2013-05-22 08:57:00,
2013-05-22 04:02:00,46.4,36.4,0.00,North,349,2.2,3.1,68,0.00,,,0.00,VWS V13.01,2013-05-22 09:02:00,
2013-05-22 04:07:00,46.4,36.8,0.00,North,0,3.6,3.6,69,0.00,,,0.00,VWS V13.01,2013-05-22 09:07:00,
2013-05-22 04:12:00,46.4,36.8,0.00,North,3,3.6,3.6,69,0.00,,,0.00,VWS V13.01,2013-05-22 09:12:00,
2013-05-22 04:17:00,46.4,36.8,0.00,NE,48,0.0,4.0,69,0.00,,,0.00,VWS V13.01,2013-05-22 09:17:00,
2013-05-22 04:22:00,46.4,36.8,0.00,North,353,0.0,2.7,69,0.00,,,0.00,VWS V13.01,2013-05-22 09:22:00,
2013-05-22 04:27:00,46.4,36.8,0.00,NE,44,0.0,0.0,69,0.00,,,0.00,VWS V13.01,2013-05-22 09:27:00,
2013-05-22 04:32:00,46.4,36.8,0.00,North,353,2.2,2.7,69,0.00,,,0.00,VWS V13.01,2013-05-22 09:32:00,
2013-05-22 04:37:00,46.2,36.6,0.00,NNW,337,0.0,2.7,69,0.00,,,0.00,VWS V13.01,2013-05-22 09:37:00,
2013-05-22 04:42:00,46.2,36.6,0.00,North,3,2.7,3.1,69,0.00,,,0.00,VWS V13.01,2013-05-22 09:42:00,
2013-05-22 04:47:00,46.2,37.0,0.00,North,353,0.0,5.4,70,0.00,,,0.00,VWS V13.01,2013-05-22 09:47:00,
2013-05-22 04:52:00,46.0,36.8,0.00,North,353,0.0,0.0,70,0.00,,,0.00,VWS V13.01,2013-05-22 09:52:00,
2013-05-22 04:57:00,46.0,36.8,0.00,NNW,334,3.1,5.8,70,0.00,,,0.00,VWS V13.01,2013-05-22 09:57:00,
2013-05-22 05:02:00,45.9,36.6,0.00,NNW,333,3.1,3.1,70,0.00,,,0.00,VWS V13.01,2013-05-22 10:02:00,
2013-05-22 05:07:00,45.9,37.0,0.00,North,349,3.1,4.5,71,0.00,,,0.00,VWS V13.01,2013-05-22 10:07:00,
2013-05-22 05:12:00,45.9,37.0,0.00,North,357,3.6,3.6,71,0.00,,,0.00,VWS V13.01,2013-05-22 10:12:00,
2013-05-22 05:17:00,45.9,37.0,0.00,NE,35,3.1,5.4,71,0.00,,,0.00,VWS V13.01,2013-05-22 10:17:00,
2013-05-22 05:22:00,45.7,37.2,0.00,NNW,345,4.9,4.9,72,0.00,,,0.00,VWS V13.01,2013-05-22 10:22:00,
2013-05-22 05:27:00,45.7,37.2,0.00,NNE,21,6.3,6.3,72,0.00,,,0.00,VWS V13.01,2013-05-22 10:27:00,
2013-05-22 05:32:00,45.7,37.2,0.00,NE,49,3.6,3.6,72,0.00,,,0.00,VWS V13.01,2013-05-22 10:32:00,
2013-05-22 05:37:00,45.5,37.0,0.00,NE,54,3.1,3.1,72,0.00,,,0.00,VWS V13.01,2013-05-22 10:37:00,
2013-05-22 05:42:00,45.5,37.0,0.00,ESE,113,2.7,2.7,72,0.00,,,0.00,VWS V13.01,2013-05-22 10:42:00,
2013-05-22 05:47:00,45.5,37.0,0.00,NW,310,0.0,3.6,72,0.00,,,0.00,VWS V13.01,2013-05-22 10:47:00,
2013-05-22 05:52:00,45.5,37.0,0.00,North,357,0.0,4.0,72,0.00,,,0.00,VWS V13.01,2013-05-22 10:52:00,
2013-05-22 05:57:00,45.7,37.2,0.00,ENE,62,2.7,2.7,72,0.00,,,0.00,VWS V13.01,2013-05-22 10:57:00,
2013-05-22 06:02:00,45.5,37.0,0.00,WNW,300,6.3,6.3,72,0.00,,,0.00,VWS V13.01,2013-05-22 11:02:00,
2013-05-22 06:07:00,45.5,37.4,0.00,NNW,346,3.6,3.6,73,0.00,,,0.00,VWS V13.01,2013-05-22 11:07:00,
2013-05-22 06:12:00,45.5,37.4,0.00,NNE,30,4.0,4.0,73,0.00,,,0.00,VWS V13.01,2013-05-22 11:12:00,
2013-05-22 06:17:00,45.5,37.4,0.00,North,357,4.0,6.3,73,0.00,,,0.00,VWS V13.01,2013-05-22 11:17:00,
2013-05-22 06:22:00,45.5,37.4,0.00,North,3,2.7,2.7,73,0.00,,,0.00,VWS V13.01,2013-05-22 11:22:00,
2013-05-22 06:27:00,45.5,37.4,0.00,NW,304,4.0,4.0,73,0.00,,,0.00,VWS V13.01,2013-05-22 11:27:00,
2013-05-22 06:32:00,45.5,37.4,0.00,North,357,0.0,5.4,73,0.00,,,0.00,VWS V13.01,2013-05-22 11:32:00,
2013-05-22 06:37:00,45.5,37.4,0.00,ENE,62,2.2,3.6,73,0.00,,,0.00,VWS V13.01,2013-05-22 11:37:00,
2013-05-22 06:42:00,45.5,37.4,0.00,NW,308,2.7,3.6,73,0.00,,,0.00,VWS V13.01,2013-05-22 11:42:00,
2013-05-22 06:47:00,45.5,37.4,0.00,North,4,3.1,3.1,73,0.00,,,0.00,VWS V13.01,2013-05-22 11:47:00,
2013-05-22 06:52:00,45.5,37.4,0.00,NW,315,4.0,5.4,73,0.00,,,0.00,VWS V13.01,2013-05-22 11:52:00,
2013-05-22 06:57:00,45.5,37.4,0.00,ENE,59,0.0,0.0,73,0.00,,,0.00,VWS V13.01,2013-05-22 11:57:00,
2013-05-22 07:02:00,45.7,37.5,0.00,NE,36,0.0,0.0,73,0.00,,,0.00,VWS V13.01,2013-05-22 12:02:00,
2013-05-22 07:07:00,45.7,37.5,0.00,NE,46,3.6,5.8,73,0.00,,,0.00,VWS V13.01,2013-05-22 12:07:00,
2013-05-22 07:12:00,45.7,37.5,0.00,North,4,4.9,5.8,73,0.00,,,0.00,VWS V13.01,2013-05-22 12:12:00,
2013-05-22 07:17:00,45.9,37.7,0.00,NNW,327,4.9,7.6,73,0.00,,,0.00,VWS V13.01,2013-05-22 12:17:00,
2013-05-22 07:22:00,45.9,37.4,0.00,North,353,3.1,4.0,72,0.00,,,0.00,VWS V13.01,2013-05-22 12:22:00,
2013-05-22 07:27:00,45.9,37.4,0.00,North,350,3.6,4.9,72,0.00,,,0.00,VWS V13.01,2013-05-22 12:27:00,
2013-05-22 07:32:00,46.0,37.5,0.00,NW,316,0.0,0.0,72,0.00,,,0.00,VWS V13.01,2013-05-22 12:32:00,
2013-05-22 07:37:00,46.0,37.5,0.00,North,353,0.0,0.0,72,0.00,,,0.00,VWS V13.01,2013-05-22 12:37:00,
2013-05-22 07:42:00,46.2,37.7,0.00,NNW,328,0.0,0.0,72,0.00,,,0.00,VWS V13.01,2013-05-22 12:42:00,
2013-05-22 07:47:00,46.4,37.9,0.00,NNE,12,3.6,3.6,72,0.00,,,0.00,VWS V13.01,2013-05-22 12:47:00,
2013-05-22 07:52:00,46.6,38.0,0.00,SSW,195,0.0,0.0,72,0.00,,,0.00,VWS V13.01,2013-05-22 12:52:00,
2013-05-22 07:57:00,46.6,38.0,0.00,ENE,62,0.0,3.6,72,0.00,,,0.00,VWS V13.01,2013-05-22 12:57:00,
2013-05-22 08:02:00,46.6,37.7,0.00,West,267,0.0,0.0,71,0.00,,,0.00,VWS V13.01,2013-05-22 13:02:00,
2013-05-22 08:07:00,46.6,37.7,0.00,NW,321,0.0,0.0,71,0.00,,,0.00,VWS V13.01,2013-05-22 13:07:00,
2013-05-22 08:12:00,46.8,37.9,0.00,NNW,329,3.6,3.6,71,0.00,,,0.00,VWS V13.01,2013-05-22 13:12:00,
2013-05-22 08:17:00,46.9,38.0,0.00,North,357,6.3,6.3,71,0.00,,,0.00,VWS V13.01,2013-05-22 13:17:00,
2013-05-22 08:22:00,46.9,37.7,0.00,North,353,2.7,2.7,70,0.00,,,0.00,VWS V13.01,2013-05-22 13:22:00,
2013-05-22 08:27:00,46.9,37.7,0.00,NNW,331,6.3,6.3,70,0.00,,,0.00,VWS V13.01,2013-05-22 13:27:00,
2013-05-22 08:32:00,47.1,37.5,0.00,NNW,345,0.0,0.0,69,0.00,,,0.00,VWS V13.01,2013-05-22 13:32:00,
2013-05-22 08:37:00,47.3,37.7,0.00,North,0,3.1,5.4,69,0.00,,,0.00,VWS V13.01,2013-05-22 13:37:00,
2013-05-22 08:42:00,47.3,37.7,0.00,NE,50,0.0,3.1,69,0.00,,,0.00,VWS V13.01,2013-05-22 13:42:00,
2013-05-22 08:47:00,47.7,38.0,0.00,NE,37,4.0,4.0,69,0.00,,,0.00,VWS V13.01,2013-05-22 13:47:00,
2013-05-22 08:52:00,47.7,37.6,0.00,North,353,3.6,4.9,68,0.00,,,0.00,VWS V13.01,2013-05-22 13:52:00,
2013-05-22 08:57:00,47.7,37.3,0.00,NNE,16,5.4,5.4,67,0.00,,,0.00,VWS V13.01,2013-05-22 13:57:00,
2013-05-22 09:02:00,47.7,36.9,0.00,North,357,4.9,5.4,66,0.00,,,0.00,VWS V13.01,2013-05-22 14:02:00,
2013-05-22 09:07:00,47.7,36.5,0.00,NNW,333,5.4,5.4,65,0.00,,,0.00,VWS V13.01,2013-05-22 14:07:00,
2013-05-22 09:12:00,47.8,37.0,0.00,NNE,23,0.0,0.0,66,0.00,,,0.00,VWS V13.01,2013-05-22 14:12:00,
2013-05-22 09:18:00,48.2,37.0,0.00,North,353,2.7,5.4,65,0.00,,,0.00,VWS V13.01,2013-05-22 14:18:00,
2013-05-22 09:23:00,48.2,36.2,0.00,NE,45,2.7,4.0,63,0.00,,,0.00,VWS V13.01,2013-05-22 14:23:00,
2013-05-22 09:28:00,48.4,36.4,0.00,ENE,58,0.0,2.7,63,0.00,,,0.00,VWS V13.01,2013-05-22 14:28:00,
2013-05-22 09:33:00,48.4,35.6,0.00,NW,326,4.0,4.0,61,0.00,,,0.00,VWS V13.01,2013-05-22 14:33:00,
2013-05-22 09:38:00,48.4,35.2,0.00,NE,54,0.0,3.1,60,0.00,,,0.00,VWS V13.01,2013-05-22 14:38:00,
2013-05-22 09:43:00,48.6,35.3,0.00,North,0,4.0,4.0,60,0.00,,,0.00,VWS V13.01,2013-05-22 14:43:00,
2013-05-22 09:48:00,48.6,35.3,0.00,North,357,5.8,5.8,60,0.00,,,0.00,VWS V13.01,2013-05-22 14:48:00,
2013-05-22 09:53:00,48.7,35.1,0.00,North,357,2.7,4.0,59,0.00,,,0.00,VWS V13.01,2013-05-22 14:53:00,
2013-05-22 09:58:00,48.7,34.6,0.00,North,353,8.3,8.3,58,0.00,,,0.00,VWS V13.01,2013-05-22 14:58:00,
2013-05-22 10:03:00,49.1,35.0,0.00,NE,55,4.9,4.9,58,0.00,,,0.00,VWS V13.01,2013-05-22 15:03:00,
2013-05-22 10:08:00,49.6,35.9,0.00,NNW,334,4.0,4.5,59,0.00,,,0.00,VWS V13.01,2013-05-22 15:08:00,
2013-05-22 10:13:00,49.8,35.2,0.00,NE,54,2.7,4.0,57,0.00,,,0.00,VWS V13.01,2013-05-22 15:13:00,
2013-05-22 10:18:00,50.2,35.5,0.00,NE,53,4.0,4.0,57,0.00,,,0.00,VWS V13.01,2013-05-22 15:18:00,
2013-05-22 10:23:00,50.4,34.4,0.00,NNW,343,6.3,8.1,54,0.00,,,0.00,VWS V13.01,2013-05-22 15:23:00,
2013-05-22 10:28:00,50.4,33.9,0.00,NE,45,4.0,4.0,53,0.00,,,0.00,VWS V13.01,2013-05-22 15:28:00,
2013-05-22 10:33:00,50.7,34.7,0.00,NNE,22,0.0,3.6,54,0.00,,,0.00,VWS V13.01,2013-05-22 15:33:00,
2013-05-22 10:38:00,50.7,33.3,0.00,NE,55,3.6,7.2,51,0.00,,,0.00,VWS V13.01,2013-05-22 15:38:00,
2013-05-22 10:43:00,50.4,32.9,0.00,NNW,328,4.9,5.8,51,0.00,,,0.00,VWS V13.01,2013-05-22 15:43:00,
2013-05-22 10:48:00,50.4,33.4,0.00,NNE,15,4.0,6.3,52,0.00,,,0.00,VWS V13.01,2013-05-22 15:48:00,
2013-05-22 10:53:00,50.4,33.4,0.00,NNW,342,4.0,5.4,52,0.00,,,0.00,VWS V13.01,2013-05-22 15:53:00,
2013-05-22 10:58:00,50.7,33.8,0.00,NE,56,4.9,5.8,52,0.00,,,0.00,VWS V13.01,2013-05-22 15:58:00,
2013-05-22 11:03:00,50.7,33.8,0.00,North,10,3.1,6.3,52,0.00,,,0.00,VWS V13.01,2013-05-22 16:03:00,
2013-05-22 11:08:00,51.1,34.1,0.00,NNE,32,0.0,4.0,52,0.00,,,0.00,VWS V13.01,2013-05-22 16:08:00,
2013-05-22 11:13:00,51.4,34.4,0.00,ENE,64,2.7,4.9,52,0.00,,,0.00,VWS V13.01,2013-05-22 16:13:00,
2013-05-22 11:18:00,51.6,33.6,0.00,NNW,336,5.4,5.4,50,0.00,,,0.00,VWS V13.01,2013-05-22 16:18:00,
2013-05-22 11:23:00,52.0,34.4,0.00,ENE,69,3.6,4.0,51,0.00,,,0.00,VWS V13.01,2013-05-22 16:23:00,
2013-05-22 11:28:00,52.5,34.4,0.00,NNW,329,2.7,2.7,50,0.00,,,0.00,VWS V13.01,2013-05-22 16:28:00,
2013-05-22 11:33:00,52.9,34.8,0.00,NNE,21,3.6,5.4,50,0.00,,,0.00,VWS V13.01,2013-05-22 16:33:00,
2013-05-22 11:38:00,53.1,33.9,0.00,NNW,335,5.8,7.6,48,0.00,,,0.00,VWS V13.01,2013-05-22 16:38:00,
2013-05-22 11:43:00,53.4,34.8,0.00,SE,131,0.0,4.9,49,0.00,,,0.00,VWS V13.01,2013-05-22 16:43:00,
2013-05-22 11:48:00,54.0,35.2,0.00,NW,310,4.0,4.9,49,0.00,,,0.00,VWS V13.01,2013-05-22 16:48:00,
2013-05-22 11:53:00,54.3,34.5,0.00,NW,324,5.4,6.3,47,0.00,,,0.00,VWS V13.01,2013-05-22 16:53:00,
2013-05-22 11:58:00,54.7,35.4,0.00,ENE,65,4.0,5.4,48,0.00,,,0.00,VWS V13.01,2013-05-22 16:58:00,
2013-05-22 12:03:00,54.5,34.2,0.00,NNW,329,6.3,6.3,46,0.00,,,0.00,VWS V13.01,2013-05-22 17:03:00,
2013-05-22 12:08:00,54.3,34.0,0.00,NNE,26,8.1,8.1,46,0.00,,,0.00,VWS V13.01,2013-05-22 17:08:00,
2013-05-22 12:13:00,54.1,33.8,0.00,NE,43,3.6,7.2,46,0.00,,,0.00,VWS V13.01,2013-05-22 17:13:00,
2013-05-22 12:18:00,54.7,34.9,0.00,North,0,4.0,4.0,47,0.00,,,0.00,VWS V13.01,2013-05-22 17:18:00,
2013-05-22 12:23:00,54.9,34.5,0.00,NNW,327,3.6,7.6,46,0.00,,,0.00,VWS V13.01,2013-05-22 17:23:00,
2013-05-22 12:28:00,54.5,34.2,0.00,North,6,5.4,5.4,46,0.00,,,0.00,VWS V13.01,2013-05-22 17:28:00,
2013-05-22 12:33:00,54.9,34.5,0.00,North,357,5.8,11.0,46,0.00,,,0.00,VWS V13.01,2013-05-22 17:33:00,
2013-05-22 12:38:00,55.0,34.7,0.00,NW,325,4.9,5.8,46,0.00,,,0.00,VWS V13.01,2013-05-22 17:38:00,
2013-05-22 12:43:00,55.0,34.7,0.00,North,0,5.4,6.7,46,0.00,,,0.00,VWS V13.01,2013-05-22 17:43:00,
2013-05-22 12:48:00,55.2,34.8,0.00,ENE,62,2.7,2.7,46,0.00,,,0.00,VWS V13.01,2013-05-22 17:48:00,
2013-05-22 12:53:00,55.8,35.3,0.00,NNW,338,4.0,5.4,46,0.00,,,0.00,VWS V13.01,2013-05-22 17:53:00,
2013-05-22 12:58:00,55.9,34.9,0.00,North,353,3.1,4.0,45,0.00,,,0.00,VWS V13.01,2013-05-22 17:58:00,
2013-05-22 13:03:00,56.3,35.2,0.00,NNE,13,3.1,5.8,45,0.00,,,0.00,VWS V13.01,2013-05-22 18:03:00,
2013-05-22 13:08:00,56.1,34.0,0.00,NNW,341,8.1,8.1,43,0.00,,,0.00,VWS V13.01,2013-05-22 18:08:00,
2013-05-22 13:13:00,56.3,34.7,0.00,NE,46,3.1,3.6,44,0.00,,,0.00,VWS V13.01,2013-05-22 18:13:00,
2013-05-22 13:18:00,56.7,35.0,0.00,NE,39,2.7,5.4,44,0.00,,,0.00,VWS V13.01,2013-05-22 18:18:00,
2013-05-22 13:23:00,56.7,33.8,0.00,NNW,334,3.1,3.6,42,0.00,,,0.00,VWS V13.01,2013-05-22 18:23:00,
2013-05-22 13:28:00,56.7,34.4,0.00,North,1,3.1,4.0,43,0.00,,,0.00,VWS V13.01,2013-05-22 18:28:00,
2013-05-22 13:33:00,56.8,35.2,0.00,ENE,61,3.6,3.6,44,0.00,,,0.00,VWS V13.01,2013-05-22 18:33:00,
2013-05-22 13:38:00,56.7,33.8,0.00,NNE,21,5.8,6.3,42,0.00,,,0.00,VWS V13.01,2013-05-22 18:38:00,
2013-05-22 13:43:00,56.8,34.6,0.00,NE,54,2.7,3.6,43,0.00,,,0.00,VWS V13.01,2013-05-22 18:43:00,
2013-05-22 13:48:00,57.0,34.2,0.00,NW,313,3.6,3.6,42,0.00,,,0.00,VWS V13.01,2013-05-22 18:48:00,
2013-05-22 13:53:00,57.2,34.3,0.00,North,357,2.7,5.8,42,0.00,,,0.00,VWS V13.01,2013-05-22 18:53:00,
2013-05-22 13:58:00,57.6,34.7,0.00,NW,322,3.6,4.5,42,0.00,,,0.00,VWS V13.01,2013-05-22 18:58:00,
2013-05-22 14:03:00,57.9,35.0,0.00,NE,38,3.1,5.8,42,0.00,,,0.00,VWS V13.01,2013-05-22 19:03:00,
2013-05-22 14:08:00,57.9,34.4,0.00,NNW,341,5.4,5.4,41,0.00,,,0.00,VWS V13.01,2013-05-22 19:08:00,
2013-05-22 14:13:00,57.9,34.4,0.00,NW,323,3.6,3.6,41,0.00,,,0.00,VWS V13.01,2013-05-22 19:13:00,
2013-05-22 14:18:00,57.9,35.0,0.00,North,350,3.1,4.0,42,0.00,,,0.00,VWS V13.01,2013-05-22 19:18:00,
2013-05-22 14:23:00,57.9,35.0,0.00,West,268,3.6,4.5,42,0.00,,,0.00,VWS V13.01,2013-05-22 19:23:00,
2013-05-22 14:28:00,57.9,35.0,0.00,NNW,328,4.0,4.0,42,0.00,,,0.00,VWS V13.01,2013-05-22 19:28:00,
2013-05-22 14:33:00,57.9,35.0,0.00,North,0,3.1,4.0,42,0.00,,,0.00,VWS V13.01,2013-05-22 19:33:00,
2013-05-22 14:38:00,58.1,34.5,0.00,NNW,333,8.7,8.7,41,0.00,,,0.00,VWS V13.01,2013-05-22 19:38:00,
2013-05-22 14:43:00,58.3,34.1,0.00,NNE,18,5.8,8.3,40,0.00,,,0.00,VWS V13.01,2013-05-22 19:43:00,
2013-05-22 14:48:00,58.5,34.2,0.00,North,353,5.8,8.1,40,0.00,,,0.00,VWS V13.01,2013-05-22 19:48:00,
2013-05-22 14:53:00,58.1,33.9,0.00,North,8,3.6,7.6,40,0.00,,,0.00,VWS V13.01,2013-05-22 19:53:00,
2013-05-22 14:58:00,57.9,34.4,0.00,North,357,3.1,3.1,41,0.00,,,0.00,VWS V13.01,2013-05-22 19:58:00,
2013-05-22 15:03:00,57.9,35.0,0.00,North,349,4.0,4.0,42,0.00,,,0.00,VWS V13.01,2013-05-22 20:03:00,
2013-05-22 15:08:00,57.7,35.4,0.00,North,353,5.4,5.4,43,0.00,,,0.00,VWS V13.01,2013-05-22 20:08:00,
2013-05-22 15:13:00,57.6,35.2,0.00,NNE,12,5.8,5.8,43,0.00,,,0.00,VWS V13.01,2013-05-22 20:13:00,
2013-05-22 15:18:00,57.4,36.2,0.00,North,353,5.4,7.6,45,0.00,,,0.00,VWS V13.01,2013-05-22 20:18:00,
2013-05-22 15:23:00,57.2,35.5,0.00,NNW,335,4.0,5.8,44,0.00,,,0.00,VWS V13.01,2013-05-22 20:23:00,
2013-05-22 15:28:00,57.0,35.9,0.00,North,0,4.9,4.9,45,0.00,,,0.00,VWS V13.01,2013-05-22 20:28:00,
2013-05-22 15:33:00,56.8,36.3,0.00,NE,43,3.6,5.4,46,0.00,,,0.00,VWS V13.01,2013-05-22 20:33:00,
2013-05-22 15:38:00,56.7,36.1,0.00,NNW,341,2.7,2.7,46,0.00,,,0.00,VWS V13.01,2013-05-22 20:38:00,
2013-05-22 15:43:00,56.5,36.0,0.00,ENE,66,2.7,2.7,46,0.00,,,0.00,VWS V13.01,2013-05-22 20:43:00,
2013-05-22 15:48:00,56.5,36.5,0.00,North,0,2.7,3.1,47,0.00,,,0.00,VWS V13.01,2013-05-22 20:48:00,
2013-05-22 15:53:00,56.3,36.3,0.00,NE,46,4.9,4.9,47,0.00,,,0.00,VWS V13.01,2013-05-22 20:53:00,
2013-05-22 15:58:00,55.9,36.0,0.00,NNW,330,5.8,7.6,47,0.00,,,0.00,VWS V13.01,2013-05-22 20:58:00,
2013-05-22 16:03:00,55.8,36.4,0.00,North,353,6.3,6.7,48,0.00,,,0.00,VWS V13.01,2013-05-22 21:03:00,
2013-05-22 16:08:00,55.6,36.2,0.00,NE,37,3.1,5.4,48,0.00,,,0.00,VWS V13.01,2013-05-22 21:08:00,
2013-05-22 16:13:00,55.0,36.2,0.00,NNW,337,3.1,6.3,49,0.00,,,0.00,VWS V13.01,2013-05-22 21:13:00,
2013-05-22 16:18:00,54.5,36.3,0.00,North,357,5.8,5.8,50,0.04,,,0.04,VWS V13.01,2013-05-22 21:18:00,
2013-05-22 16:23:00,54.0,36.3,0.00,NNE,19,2.2,5.8,51,0.04,,,0.04,VWS V13.01,2013-05-22 21:23:00,
2013-05-22 16:28:00,53.6,36.9,0.00,NNW,348,3.1,3.1,53,0.04,,,0.04,VWS V13.01,2013-05-22 21:28:00,
2013-05-22 16:33:00,53.2,38.0,0.00,NNE,28,4.0,4.0,56,0.04,,,0.04,VWS V13.01,2013-05-22 21:33:00,
2013-05-22 16:38:00,53.1,38.7,0.00,North,5,6.3,6.3,58,0.04,,,0.04,VWS V13.01,2013-05-22 21:38:00,
2013-05-22 16:43:00,52.7,38.8,0.00,NE,40,5.4,5.4,59,0.04,,,0.04,VWS V13.01,2013-05-22 21:43:00,
2013-05-22 16:48:00,52.3,38.9,0.00,North,8,4.0,8.1,60,0.04,,,0.04,VWS V13.01,2013-05-22 21:48:00,
2013-05-22 16:53:00,52.2,39.1,0.00,NE,49,3.1,8.7,61,0.04,,,0.04,VWS V13.01,2013-05-22 21:53:00,
2013-05-22 16:58:00,51.8,39.2,0.00,NW,322,2.7,4.9,62,0.04,,,0.04,VWS V13.01,2013-05-22 21:58:00,
2013-05-22 17:03:00,51.6,39.5,0.00,NNW,331,0.0,3.6,63,0.04,,,0.04,VWS V13.01,2013-05-22 22:03:00,
2013-05-22 17:08:00,51.6,39.8,0.00,NNW,348,3.1,3.6,64,0.08,,,0.08,VWS V13.01,2013-05-22 22:08:00,
2013-05-22 17:13:00,51.4,40.1,0.00,North,2,0.0,0.0,65,0.08,,,0.08,VWS V13.01,2013-05-22 22:13:00,
2013-05-22 17:18:00,51.3,39.9,0.00,NNE,14,0.0,0.0,65,0.08,,,0.08,VWS V13.01,2013-05-22 22:18:00,
2013-05-22 17:23:00,51.3,39.9,0.00,North,1,3.6,5.8,65,0.04,,,0.08,VWS V13.01,2013-05-22 22:23:00,
2013-05-22 17:28:00,51.1,40.1,0.00,North,353,2.7,3.1,66,0.04,,,0.08,VWS V13.01,2013-05-22 22:28:00,
2013-05-22 17:33:00,50.9,40.3,0.00,NNE,27,4.9,4.9,67,0.04,,,0.08,VWS V13.01,2013-05-22 22:33:00,
2013-05-22 17:38:00,50.7,40.6,0.00,North,357,5.4,8.1,68,0.04,,,0.08,VWS V13.01,2013-05-22 22:38:00,
2013-05-22 17:43:00,50.5,40.4,0.00,NW,313,3.1,3.1,68,0.04,,,0.08,VWS V13.01,2013-05-22 22:43:00,
2013-05-22 17:48:00,50.5,40.8,0.00,North,357,2.7,5.8,69,0.04,,,0.08,VWS V13.01,2013-05-22 22:48:00,
2013-05-22 17:53:00,50.4,40.6,0.00,North,2,3.1,6.3,69,0.04,,,0.08,VWS V13.01,2013-05-22 22:53:00,
2013-05-22 17:58:00,50.4,40.6,0.00,NNE,32,3.1,3.1,69,0.08,,,0.12,VWS V13.01,2013-05-22 22:58:00,
2013-05-22 18:03:00,50.2,40.8,0.00,NW,314,2.7,4.0,70,0.08,,,0.12,VWS V13.01,2013-05-22 23:03:00,
2013-05-22 18:08:00,50.2,40.8,0.00,NW,322,3.6,3.6,70,0.08,,,0.12,VWS V13.01,2013-05-22 23:08:00,
2013-05-22 18:13:00,50.2,40.8,0.00,WNW,298,5.8,5.8,70,0.04,,,0.12,VWS V13.01,2013-05-22 23:13:00,
2013-05-22 18:18:00,50.0,41.0,0.00,East,80,6.3,6.3,71,0.04,,,0.12,VWS V13.01,2013-05-22 23:18:00,
2013-05-22 18:23:00,49.8,40.8,0.00,ESE,122,5.8,5.8,71,0.04,,,0.12,VWS V13.01,2013-05-22 23:23:00,
2013-05-22 18:28:00,49.6,40.6,0.00,NNW,327,0.0,0.0,71,0.04,,,0.12,VWS V13.01,2013-05-22 23:28:00,
2013-05-22 18:33:00,49.6,40.6,0.00,ENE,60,5.4,6.3,71,0.04,,,0.12,VWS V13.01,2013-05-22 23:33:00,
2013-05-22 18:38:00,49.5,40.8,0.00,NNW,328,3.6,3.6,72,0.04,,,0.12,VWS V13.01,2013-05-22 23:38:00,
2013-05-22 18:43:00,49.5,40.8,0.00,NNW,328,2.7,4.9,72,0.04,,,0.16,VWS V13.01,2013-05-22 23:43:00,
2013-05-22 18:48:00,49.5,40.8,0.00,NNE,20,3.6,4.9,72,0.08,,,0.16,VWS V13.01,2013-05-22 23:48:00,
2013-05-22 18:53:00,49.3,40.7,0.00,North,9,4.0,4.0,72,0.08,,,0.16,VWS V13.01,2013-05-22 23:53:00,
2013-05-22 18:58:00,49.3,41.0,0.00,North,9,6.3,6.3,73,0.04,,,0.16,VWS V13.01,2013-05-22 23:58:00,
2013-05-22 19:03:00,49.3,40.7,0.00,NE,47,2.2,7.2,72,0.04,,,0.16,VWS V13.01,2013-05-23 00:03:00,
2013-05-22 19:08:00,49.1,40.5,0.00,NW,316,2.7,3.6,72,0.04,,,0.16,VWS V13.01,2013-05-23 00:08:00,
2013-05-22 19:13:00,49.1,40.8,0.00,North,5,4.9,4.9,73,0.04,,,0.16,VWS V13.01,2013-05-23 00:13:00,
2013-05-22 19:18:00,49.1,40.8,0.00,North,6,4.0,5.4,73,0.04,,,0.16,VWS V13.01,2013-05-23 00:18:00,
2013-05-22 19:23:00,49.1,40.8,0.00,NW,312,6.3,6.3,73,0.08,,,0.20,VWS V13.01,2013-05-23 00:23:00,
2013-05-22 19:28:00,49.1,40.8,0.00,ENE,77,2.2,2.2,73,0.08,,,0.20,VWS V13.01,2013-05-23 00:28:00,
2013-05-22 19:33:00,49.1,41.2,0.00,ENE,78,2.7,5.4,74,0.08,,,0.20,VWS V13.01,2013-05-23 00:33:00,
2013-05-22 19:38:00,49.1,41.2,0.00,NNW,329,4.0,4.0,74,0.08,,,0.20,VWS V13.01,2013-05-23 00:38:00,
2013-05-22 19:43:00,49.1,41.5,0.00,WNW,292,0.0,0.0,75,0.08,,,0.20,VWS V13.01,2013-05-23 00:43:00,
2013-05-22 19:48:00,49.1,41.2,0.00,NW,323,3.6,3.6,74,0.04,,,0.20,VWS V13.01,2013-05-23 00:48:00,
2013-05-22 19:53:00,49.1,41.2,0.00,NE,42,2.2,4.0,74,0.04,,,0.20,VWS V13.01,2013-05-23 00:53:00,
2013-05-22 19:58:00,48.9,41.0,0.00,ENE,69,5.4,5.4,74,0.04,,,0.20,VWS V13.01,2013-05-23 00:58:00,
2013-05-22 20:03:00,49.1,41.2,0.00,SE,143,4.9,5.4,74,0.04,,,0.20,VWS V13.01,2013-05-23 01:03:00,
2013-05-22 20:08:00,49.1,41.5,0.00,ENE,69,3.1,3.1,75,0.04,,,0.20,VWS V13.01,2013-05-23 01:08:00,
2013-05-22 20:13:00,49.1,41.5,0.00,East,92,0.0,0.0,75,0.04,,,0.20,VWS V13.01,2013-05-23 01:13:00,
2013-05-22 20:18:00,49.1,41.5,0.00,NNW,327,0.0,0.0,75,0.04,,,0.20,VWS V13.01,2013-05-23 01:18:00,
2013-05-22 20:23:00,49.1,41.5,0.00,NNW,345,3.1,3.1,75,0.04,,,0.20,VWS V13.01,2013-05-23 01:23:00,
2013-05-22 20:28:00,49.1,41.5,0.00,East,98,0.0,4.0,75,0.00,,,0.20,VWS V13.01,2013-05-23 01:28:00,
2013-05-22 20:33:00,49.3,41.7,0.00,NNE,18,3.6,3.6,75,0.00,,,0.20,VWS V13.01,2013-05-23 01:33:00,
2013-05-22 20:38:00,49.5,41.9,0.00,North,4,2.7,3.6,75,0.00,,,0.20,VWS V13.01,2013-05-23 01:38:00,
2013-05-22 20:43:00,49.5,41.9,0.00,North,3,0.0,4.0,75,0.00,,,0.20,VWS V13.01,2013-05-23 01:43:00,
2013-05-22 20:48:00,49.6,42.0,0.00,North,3,3.1,3.1,75,0.00,,,0.20,VWS V13.01,2013-05-23 01:48:00,
2013-05-22 20:53:00,49.8,42.2,0.00,WNW,300,0.0,0.0,75,0.00,,,0.20,VWS V13.01,2013-05-23 01:53:00,
2013-05-22 20:58:00,49.8,42.2,0.00,NE,52,0.0,0.0,75,0.00,,,0.20,VWS V13.01,2013-05-23 01:58:00,
2013-05-22 21:03:00,50.0,42.4,0.00,ENE,64,2.7,3.1,75,0.00,,,0.20,VWS V13.01,2013-05-23 02:03:00,
2013-05-22 21:08:00,50.0,42.4,0.00,East,93,2.7,2.7,75,0.00,,,0.20,VWS V13.01,2013-05-23 02:08:00,
2013-05-22 21:13:00,50.2,42.2,0.00,East,85,2.2,4.0,74,0.00,,,0.20,VWS V13.01,2013-05-23 02:13:00,
2013-05-22 21:18:00,50.4,42.4,0.00,North,0,0.0,0.0,74,0.00,,,0.20,VWS V13.01,2013-05-23 02:18:00,
2013-05-22 21:23:00,50.4,42.4,0.00,NNE,32,4.9,4.9,74,0.00,,,0.20,VWS V13.01,2013-05-23 02:23:00,
2013-05-22 21:28:00,50.5,42.6,0.00,SE,140,3.1,3.1,74,0.00,,,0.20,VWS V13.01,2013-05-23 02:28:00,
2013-05-22 21:33:00,50.5,42.2,0.00,NNW,333,3.6,3.6,73,0.00,,,0.20,VWS V13.01,2013-05-23 02:33:00,
2013-05-22 21:38:00,50.7,42.0,0.00,North,2,3.1,3.1,72,0.00,,,0.20,VWS V13.01,2013-05-23 02:38:00,
2013-05-22 21:43:00,50.7,42.0,0.00,WNW,294,0.0,0.0,72,0.00,,,0.20,VWS V13.01,2013-05-23 02:43:00,
2013-05-22 21:48:00,50.7,41.7,0.00,NE,42,0.0,0.0,71,0.00,,,0.20,VWS V13.01,2013-05-23 02:48:00,
2013-05-22 21:53:00,50.7,41.7,0.00,NE,34,0.0,3.6,71,0.00,,,0.20,VWS V13.01,2013-05-23 02:53:00,
2013-05-22 21:58:00,50.9,41.5,0.00,ENE,60,0.0,0.0,70,0.00,,,0.20,VWS V13.01,2013-05-23 02:58:00,
2013-05-22 22:03:00,51.1,40.9,0.00,NE,39,2.7,2.7,68,0.00,,,0.20,VWS V13.01,2013-05-23 03:03:00,
2013-05-22 22:08:00,51.3,39.5,0.00,NNE,29,4.0,4.9,64,0.00,,,0.20,VWS V13.01,2013-05-23 03:08:00,
2013-05-22 22:13:00,51.3,37.0,0.00,ENE,58,2.2,7.2,58,0.00,,,0.20,VWS V13.01,2013-05-23 03:13:00,
2013-05-22 22:18:00,51.4,36.3,0.00,West,277,0.0,0.0,56,0.00,,,0.20,VWS V13.01,2013-05-23 03:18:00,
2013-05-22 22:23:00,51.4,35.8,0.00,NE,55,0.0,0.0,55,0.00,,,0.20,VWS V13.01,2013-05-23 03:23:00,
2013-05-22 22:28:00,51.3,35.2,0.00,NNW,343,4.0,4.0,54,0.00,,,0.20,VWS V13.01,2013-05-23 03:28:00,
2013-05-22 22:33:00,51.3,35.2,0.00,NNE,14,0.0,2.2,54,0.00,,,0.20,VWS V13.01,2013-05-23 03:33:00,
2013-05-22 22:38:00,51.3,34.7,0.00,North,0,2.2,4.9,53,0.00,,,0.20,VWS V13.01,2013-05-23 03:38:00,
2013-05-22 22:43:00,51.3,33.3,0.00,NE,55,4.9,4.9,50,0.00,,,0.20,VWS V13.01,2013-05-23 03:43:00,
2013-05-22 22:48:00,51.3,33.3,0.00,NNW,342,0.0,0.0,50,0.00,,,0.20,VWS V13.01,2013-05-23 03:48:00,
2013-05-22 22:53:00,51.1,32.6,0.00,North,11,2.7,3.1,49,0.00,,,0.20,VWS V13.01,2013-05-23 03:53:00,
2013-05-22 22:58:00,51.1,32.1,0.00,NNW,343,2.2,2.2,48,0.00,,,0.20,VWS V13.01,2013-05-23 03:58:00,
2013-05-22 23:01:00,51.1,32.1,0.00,NNW,341,8.3,8.3,48,0.00,,,0.20,VWS V13.01,2013-05-23 04:01:00,
2013-05-22 23:06:00,50.9,31.9,0.00,NNW,334,0.0,4.9,48,0.00,,,0.20,VWS V13.01,2013-05-23 04:06:00,
2013-05-22 23:11:00,50.9,31.9,0.00,NNE,25,2.7,6.3,48,0.00,,,0.20,VWS V13.01,2013-05-23 04:11:00,
2013-05-22 23:16:00,50.9,31.4,0.00,North,0,3.6,3.6,47,0.00,,,0.20,VWS V13.01,2013-05-23 04:16:00,
2013-05-22 23:21:00,50.9,31.4,0.00,North,0,5.8,5.8,47,0.00,,,0.20,VWS V13.01,2013-05-23 04:21:00,
2013-05-22 23:26:00,50.9,31.4,0.00,NNW,328,2.2,3.6,47,0.00,,,0.20,VWS V13.01,2013-05-23 04:26:00,
2013-05-22 23:31:00,50.7,30.7,0.00,East,93,0.0,2.7,46,0.00,,,0.20,VWS V13.01,2013-05-23 04:31:00,
2013-05-22 23:36:00,50.7,30.7,0.00,NE,40,0.0,2.2,46,0.00,,,0.20,VWS V13.01,2013-05-23 04:36:00,
2013-05-22 23:41:00,50.7,30.7,0.00,NNW,342,3.1,3.1,46,0.00,,,0.20,VWS V13.01,2013-05-23 04:41:00,
2013-05-22 23:46:00,50.7,30.7,0.00,NE,54,0.0,0.0,46,0.00,,,0.20,VWS V13.01,2013-05-23 04:46:00,
2013-05-22 23:51:00,50.5,30.5,0.00,ENE,69,2.2,2.2,46,0.00,,,0.20,VWS V13.01,2013-05-23 04:51:00,
2013-05-22 23:56:00,50.5,30.5,0.00,NE,49,0.0,0.0,46,0.00,,,0.20,VWS V13.01,2013-05-23 04:56:00,